Starlink 31366

operational
NORAD ID: 59403 Int'l Des: 2024-064 Owner: SPXS Country: US Constellation: starlink
LEOCIRCULAR

Starlink 31366について

説明を読み込み中...

リアルタイム位置

3D地球を読み込み中...

次回通過

高度履歴

Altitude vs Time

uPlot chart will show altitude changes over time

軌道要素

1 59403U 24064F 26036.57220979 .00001338 00000-0 58122-4 0 9992
2 59403 43.0024 237.5707 0001004 271.2752 88.7984 15.27578815104310
Epoch: Feb 5, 2026 • Age: 40 hours

現在のステータス

高度 492.5 km
速度 7.62 km/s
衛星直下点 -34.95°S, 131.05°W
打ち上げ日 Apr 5, 2024
運用期間 1.8 years
タイプ internet

技術仕様

分類 Payload
質量 730.00 kg
乾燥質量 700.00 kg
総質量 730.00 kg
長さ 0.30 m
直径 4.10 m
スパン 29.00 m
形状 Box + pan
製造者 SPXS
バスタイプ Starlink V2M
フェーズステータス In Orbit
所有者/国 SPXS/US

大規模コンステレーション

Loading constellations...